Orbital Elements at Epoch 2459000.5 (2020-May-31.0) TDB
Reference: JPL 15 (heliocentric ecliptic J2000)
Element | Value | Uncertainty (1-sigma) | Units |
e | .1902722741524794 | 4.5534e-08 | |
a | 2.225848240188519 | 1.3372e-08 | au |
q | 1.802331033609556 | 1.0419e-07 | au |
i | 5.779177057797776 | 6.4072e-06 | deg |
node | 96.26153194510069 | 4.871e-05 | deg |
peri | 274.9555289211747 | 5.2714e-05 | deg |
M | 7.35954853569033 | 2.2252e-05 | deg |
tp | 2458975.703497674551 (2020-May-06.20349767) | 7.4822e-05 | TDB |
period | 1212.946798824854 3.32 | 1.0931e-05 2.993e-08 | d yr |
n | .2967978483052849 | 2.6746e-09 | deg/d |
Q | 2.649365446767483 | 1.5917e-08 | au |
|
| | Orbit Determination Parameters
Additional Information
|